map of XNA home
Great Circle Mapper logo
XNA - Airport
Location
City:  Fayetteville, Arkansas, United States
Near (Alt.):Springdale
Name:Northwest Arkansas Regional
ICAO / IATA:KXNA / XNA
FAA:XNA

Details
Type:Airport (Part 139 Class I)
Use:Public/Civil
Latitude:3616'54"N (36.281579)
Longitude:9418'28"W (-94.307765)
Datum:WGS 1984
Elevation:1288 ft (393 m)
Runways:2
Longest:8800 × 150 ft (2682 × 45.5 m), paved

Time
Time Zone:UTC-6 (DST-5)
Local Time:

Weather
METAR:KXNA 231053Z 18004KT 10SM OVC110 13/11 A3015 RMK AO2 SLP202 T01280106
TAF:KXNA 230520Z 2306/2406 17004KT P6SM SCT150
FM230900 00000KT P6SM BKN150
FM231200 17005KT P6SM SCT050 BKN100
FM240000 18003KT P6SM SCT250

Related Locations
Nearby:
Farthest:MGV: 10776 mi / 17342 km
Margaret River, WA, AU

Find:

   beyond  
but within

Other Information
Maps:
Delays:
NOTAMs:
Links:
Sources:

  
flag of United States
flag of Arkansas
  

Airport Diagram

Airport diagram for XNA

Airport diagram PDF

Sectional Chart

Flight Planning
at skyvector.com

Satellite Image

Google Maps Satellite View

 

Copyright © 2004-2014 Karl L. Swartz. All rights reserved.
The Great Circle Mapper name and logo are trademarks of the Great Circle Mapper.
All other trademarks mentioned herein belong to their respective owners.
Please see credits for attibutions and further copyright information.

  Follow gcmap on Facebook Follow gcmap on Twitter

hCard Microformat

Geo Microformat